When you browse on this site, cookies collect data to enhance your experience and personalize the content and advertising you see.
Visit our Privacy Policy to learn more. By continuing to use the site, you agree to this use of cookies and data.
  • In Hungary
  • List of Countries
  • For 7 days
  • Water Temperature
  • Satellite Maps
  • Weather Map
  • News
  • Weather Widgets
  • user-avatar
    Login

    Hourly Weather Stawnica

    Today, 23 January, Wednesday

    Time Temperature Precipitation Wind Pressure Humidity
    00:00 -9°C° 0 mm 3 mps 757 mmHg 91%
    01:00 -9°C° 0 mm 3 mps 757 mmHg 92%
    02:00 -9°C° 0 mm 3 mps 757 mmHg 92%
    03:00 -9°C° 0 mm 3 mps 756 mmHg 93%
    04:00 -8°C° 0 mm 2 mps 756 mmHg 93%
    05:00 -9°C° 0 mm 2 mps 756 mmHg 93%
    06:00 -9°C° 0 mm 2 mps 756 mmHg 94%
    07:00 -9°C° 0 mm 2 mps 756 mmHg 94%
    08:00 -10°C° 0 mm 3 mps 756 mmHg 92%
    09:00 -9°C° 0 mm 3 mps 756 mmHg 89%
    10:00 -9°C° 0 mm 3 mps 756 mmHg 87%
    11:00 -8°C° 0 mm 3 mps 756 mmHg 86%
    12:00 -8°C° 0 mm 3 mps 756 mmHg 85%
    13:00 -7°C° 0 mm 3 mps 755 mmHg 83%
    14:00 -8°C° 0 mm 3 mps 756 mmHg 86%
    15:00 -8°C° 0 mm 2 mps 756 mmHg 88%
    16:00 -8°C° 0 mm 2 mps 756 mmHg 90%
    17:00 -9°C° 0 mm 2 mps 756 mmHg 91%
    18:00 -9°C° 0 mm 2 mps 756 mmHg 92%
    19:00 -10°C° 0 mm 2 mps 756 mmHg 93%
    20:00 -10°C° 0 mm 2 mps 756 mmHg 93%
    21:00 -10°C° 0 mm 2 mps 756 mmHg 94%
    22:00 -10°C° 0 mm 2 mps 756 mmHg 94%
    23:00 -12°C° 0 mm 2 mps 757 mmHg 94%

    Tomorrow, 24 January, Thursday

    Time Temperature Precipitation Wind Pressure Humidity
    00:00 -12°C° 0 mm 2 mps 757 mmHg 94%
    01:00 -12°C° 0 mm 2 mps 757 mmHg 94%
    02:00 -12°C° 0 mm 2 mps 757 mmHg 94%
    03:00 -13°C° 0 mm 2 mps 757 mmHg 94%
    04:00 -13°C° 0 mm 2 mps 757 mmHg 94%
    05:00 -13°C° 0 mm 2 mps 757 mmHg 94%
    06:00 -13°C° 0 mm 2 mps 757 mmHg 94%
    07:00 -13°C° 0 mm 2 mps 757 mmHg 94%
    08:00 -13°C° 0 mm 2 mps 758 mmHg 93%
    09:00 -13°C° 0 mm 3 mps 758 mmHg 91%
    10:00 -12°C° 0 mm 3 mps 759 mmHg 90%
    11:00 -12°C° 0 mm 3 mps 759 mmHg 89%
    12:00 -9°C° 0 mm 2 mps 759 mmHg 89%
    13:00 -8°C° 0 mm 2 mps 759 mmHg 88%
    14:00 -9°C° 0 mm 2 mps 759 mmHg 90%
    15:00 -9°C° 0 mm 2 mps 759 mmHg 92%
    16:00 -10°C° 0 mm 2 mps 759 mmHg 93%
    17:00 -12°C° 0 mm 3 mps 759 mmHg 93%
    18:00 -13°C° 0 mm 3 mps 760 mmHg 93%
    19:00 -13°C° 0 mm 3 mps 760 mmHg 92%
    20:00 -14°C° 0 mm 3 mps 760 mmHg 92%
    21:00 -14°C° 0 mm 3 mps 760 mmHg 92%
    22:00 -13°C° 0 mm 2 mps 761 mmHg 92%
    23:00 -13°C° 0 mm 2 mps 761 mmHg 91%

    Day after tomorrow, 25 January, Friday

    Time Temperature Precipitation Wind Pressure Humidity
    00:00 -14°C° 0 mm 3 mps 761 mmHg 91%
    01:00 -15°C° 0 mm 3 mps 761 mmHg 91%
    02:00 -15°C° 0 mm 3 mps 761 mmHg 90%
    03:00 -15°C° 0 mm 3 mps 761 mmHg 89%
    04:00 -15°C° 0 mm 3 mps 761 mmHg 88%
    05:00 -15°C° 0 mm 3 mps 761 mmHg 88%
    06:00 -15°C° 0 mm 3 mps 762 mmHg 88%
    07:00 -15°C° 0 mm 3 mps 762 mmHg 88%
    08:00 -14°C° 0 mm 3 mps 762 mmHg 87%
    09:00 -15°C° 0 mm 4 mps 762 mmHg 86%
    10:00 -14°C° 0 mm 4 mps 762 mmHg 85%
    11:00 -12°C° 0 mm 4 mps 762 mmHg 85%
    12:00 -12°C° 0 mm 5 mps 762 mmHg 85%
    13:00 -12°C° 0 mm 5 mps 762 mmHg 85%
    14:00 -12°C° 0 mm 5 mps 762 mmHg 87%
    15:00 -12°C° 0 mm 5 mps 762 mmHg 89%
    16:00 -12°C° 0 mm 5 mps 762 mmHg 91%
    17:00 -12°C° 0 mm 5 mps 763 mmHg 90%
    18:00 -11°C° 0 mm 5 mps 763 mmHg 90%
    19:00 -11°C° 0 mm 5 mps 763 mmHg 90%
    20:00 -11°C° 0 mm 5 mps 763 mmHg 90%
    21:00 -11°C° 0 mm 4 mps 763 mmHg 90%
    22:00 -11°C° 0 mm 4 mps 763 mmHg 90%
    23:00 -11°C° 0 mm 4 mps 763 mmHg 91%

    26 January, Saturday

    Time Temperature Precipitation Wind Pressure Humidity
    00:00 -12°C° 0 mm 4 mps 763 mmHg 92%
    01:00 -12°C° 0 mm 4 mps 763 mmHg 92%
    02:00 -12°C° 0 mm 4 mps 763 mmHg 93%
    03:00 -14°C° 0 mm 4 mps 763 mmHg 93%
    04:00 -13°C° 0 mm 3 mps 763 mmHg 94%
    05:00 -13°C° 0 mm 3 mps 763 mmHg 94%
    06:00 -14°C° 0 mm 3 mps 763 mmHg 94%
    07:00 -14°C° 0 mm 3 mps 763 mmHg 94%
    08:00 -14°C° 0 mm 3 mps 763 mmHg 93%
    09:00 -13°C° 0 mm 3 mps 764 mmHg 91%
    10:00 -13°C° 0 mm 3 mps 764 mmHg 90%
    11:00 -12°C° 0 mm 3 mps 763 mmHg 89%
    12:00 -10°C° 0 mm 3 mps 763 mmHg 89%
    13:00 -9°C° 0 mm 2 mps 763 mmHg 88%
    14:00 -9°C° 0 mm 2 mps 763 mmHg 90%
    15:00 -9°C° 0 mm 2 mps 763 mmHg 91%
    16:00 -9°C° 0 mm 2 mps 762 mmHg 93%
    17:00 -9°C° 0 mm 2 mps 762 mmHg 93%
    18:00 -9°C° 0 mm 2 mps 762 mmHg 93%
    19:00 -10°C° 0 mm 2 mps 762 mmHg 93%
    20:00 -9°C° 0 mm 2 mps 762 mmHg 93%
    21:00 -10°C° 0 mm 3 mps 762 mmHg 92%
    22:00 -10°C° 0 mm 3 mps 762 mmHg 92%
    23:00 -10°C° 0 mm 3 mps 762 mmHg 92%

    27 January, Sunday

    Time Temperature Precipitation Wind Pressure Humidity
    00:00 -10°C° 0 mm 3 mps 761 mmHg 93%
    01:00 -10°C° 0 mm 3 mps 761 mmHg 93%
    02:00 -10°C° 0 mm 3 mps 761 mmHg 93%
    03:00 -10°C° 0 mm 3 mps 760 mmHg 93%
    04:00 -10°C° 0 mm 3 mps 760 mmHg 93%
    05:00 -10°C° 0 mm 3 mps 760 mmHg 93%
    06:00 -10°C° 0 mm 3 mps 760 mmHg 92%
    07:00 -11°C° 0 mm 4 mps 760 mmHg 92%
    08:00 -11°C° 0 mm 4 mps 760 mmHg 92%
    09:00 -11°C° 0 mm 4 mps 760 mmHg 91%
    10:00 -12°C° 0 mm 5 mps 760 mmHg 91%
    11:00 -11°C° 0 mm 5 mps 759 mmHg 90%
    12:00 -10°C° 0 mm 5 mps 759 mmHg 89%
    13:00 -10°C° 0 mm 5 mps 759 mmHg 88%
    14:00 -10°C° 0 mm 5 mps 759 mmHg 88%
    15:00 -10°C° 0 mm 5 mps 759 mmHg 88%
    16:00 -10°C° 0 mm 5 mps 759 mmHg 88%
    17:00 -10°C° 0 mm 5 mps 759 mmHg 88%
    18:00 -10°C° 0 mm 5 mps 759 mmHg 88%
    19:00 -10°C° 0 mm 5 mps 759 mmHg 89%
    20:00 -10°C° 0 mm 6 mps 759 mmHg 88%
    21:00 -10°C° 0 mm 6 mps 759 mmHg 87%
    22:00 -10°C° 0 mm 6 mps 759 mmHg 87%
    23:00 -10°C° 0 mm 6 mps 759 mmHg 86%

    28 January, Monday

    Time Temperature Precipitation Wind Pressure Humidity
    00:00 -10°C° 0 mm 6 mps 759 mmHg 86%
    01:00 -10°C° 0 mm 6 mps 759 mmHg 85%
    02:00 -10°C° 0 mm 6 mps 759 mmHg 86%
    03:00 -10°C° 0 mm 6 mps 759 mmHg 86%
    04:00 -10°C° 0 mm 6 mps 759 mmHg 87%
    05:00 -10°C° 0 mm 6 mps 760 mmHg 87%
    06:00 -10°C° 0 mm 6 mps 760 mmHg 88%
    07:00 -10°C° 0 mm 6 mps 760 mmHg 88%
    08:00 -10°C° 0 mm 6 mps 760 mmHg 88%
    09:00 -10°C° 0 mm 6 mps 761 mmHg 88%
    10:00 -9°C° 0 mm 6 mps 761 mmHg 88%
    11:00 -9°C° 0 mm 6 mps 761 mmHg 87%
    12:00 -8°C° 0 mm 6 mps 761 mmHg 86%
    13:00 -8°C° 0 mm 6 mps 761 mmHg 86%
    14:00 -7°C° 0 mm 5 mps 762 mmHg 86%
    15:00 -7°C° 0 mm 5 mps 762 mmHg 87%
    16:00 -8°C° 0 mm 5 mps 762 mmHg 88%
    17:00 -8°C° 0 mm 5 mps 762 mmHg 88%
    18:00 -8°C° 0 mm 5 mps 762 mmHg 88%
    19:00 -10°C° 0 mm 5 mps 763 mmHg 89%
    20:00 -10°C° 0 mm 5 mps 763 mmHg 89%
    21:00 -10°C° 0 mm 5 mps 763 mmHg 89%
    22:00 -9°C° 0 mm 4 mps 763 mmHg 90%
    23:00 -8°C° 0 mm 4 mps 763 mmHg 90%
    Show more